Location: Unspecified
(43.4680°N, 87.1740°E)
Time: 19:44:55
(UTC+00:00)

BREEZE-M DEB (TANK) - Pass Details

Date: 17 January 2020
Orbit: 323 x 14856 km, 49.5° (Epoch: 21 February)

Event Time Altitude Azimuth Distance (km) Brightness Sun altitude
Rises 13:03:08 0° 242° (WSW) 2,259 7.4 -21.6°
Reaches altitude 10° 13:05:03 10° 243° (WSW) 1,250 5.8 -21.9°
Enters shadow 13:06:19 30° 244° (WSW) 616 3.9 -22.1°
